Weather History for KFBL - December, 2013

Change the Weather History Date:

Thursday, December 19, 2013

  Actual Average Record
Temperature  
Mean Temperature 22 °F -  
Max Temperature 26 °F 26 °F 46 °F (1979)
Min Temperature 19 °F 9 °F -36 °F (1983)
Degree Days  
Heating Degree Days 42    
Moisture  
Dew Point 13 °F    
Average Humidity 68    
Maximum Humidity 80    
Minimum Humidity 58    
Precipitation  
Precipitation 0.00 in - - ()
Sea Level Pressure  
Sea Level Pressure 29.94 in    
Wind  
Wind Speed 7 mph (North)    
Max Wind Speed 16 mph    
Max Gust Speed 24 mph    
Visibility 10 miles    
Events      
Averages and records for this station are not official NWS values.
T = Trace of Precipitation, MM = Missing Value Source: NWS Daily Summary

Daily Weather History Graph

Daily Weather History Graph

Search for Another Location

Airport or City:

Trip Planner

Search our weather history database for the weather conditions in past years. The results will help you decide how hot, cold, wet, or windy it might be!

Date:

Astronomy

Dec. 19, 2013 Rise Set
Actual Time 7:45 AM CST 4:36 PM CST
Civil Twilight 7:11 AM CST 5:09 PM CST
Nautical Twilight 6:34 AM CST 5:46 PM CST
Astronomical Twilight 5:59 AM CST 6:21 PM CST
Moon 7:07 PM CST (12/19) 8:59 AM CST (12/19)
Length of Visible Light 9h 57m
Length of Day
8h 51m
Waning Gibbous, 95% of the Moon is Illuminated
Dec 19
Waning Gibbous
Dec 25
Last Quarter
Jan 1
New
Jan 7
First Quarter
Jan 15
Full

Hourly Weather History & Observations

Time (CST) Temp. Windchill Dew Point Humidity Pressure Visibility Wind Dir Wind Speed Gust Speed Precip Events Conditions
12:13 AM 24.8 °F - 19.4 °F 80% 29.79 in 10.0 mi Calm Calm - N/A   Clear
12:34 AM 24.8 °F - 19.4 °F 80% 29.79 in 10.0 mi Calm Calm - N/A   Clear
12:54 AM 26.6 °F 21.2 °F 21.2 °F 80% 29.80 in 10.0 mi WNW 4.6 mph - N/A   Clear
1:13 AM 26.6 °F 22.6 °F 21.2 °F 80% 29.82 in 10.0 mi West 3.5 mph - N/A   Clear
1:34 AM 26.6 °F 20.0 °F 19.4 °F 74% 29.82 in 10.0 mi NW 5.8 mph - N/A   Clear
1:54 AM 26.6 °F 19.1 °F 19.4 °F 74% 29.82 in 10.0 mi NW 6.9 mph - N/A   Clear
2:14 AM 26.6 °F 20.0 °F 19.4 °F 74% 29.82 in 10.0 mi NNW 5.8 mph - N/A   Clear
2:34 AM 26.6 °F 21.2 °F 19.4 °F 74% 29.85 in 10.0 mi NNW 4.6 mph - N/A   Clear
2:54 AM 26.6 °F - 19.4 °F 74% 29.86 in 10.0 mi Calm Calm - N/A   Clear
3:14 AM 24.8 °F - 17.6 °F 74% 29.87 in 10.0 mi Calm Calm - N/A   Clear
3:34 AM 24.8 °F - 17.6 °F 74% 29.88 in 10.0 mi Calm Calm - N/A   Clear
3:54 AM 21.2 °F 14.9 °F 15.8 °F 80% 29.88 in 10.0 mi NNW 4.6 mph - N/A   Clear
4:14 AM 21.2 °F 14.9 °F 15.8 °F 80% 29.89 in 10.0 mi NW 4.6 mph - N/A   Clear
4:34 AM 23.0 °F 15.8 °F 17.6 °F 80% 29.89 in 10.0 mi NNW 5.8 mph - N/A   Clear
4:54 AM 23.0 °F 18.4 °F 17.6 °F 80% 29.89 in 10.0 mi North 3.5 mph - N/A   Clear
5:14 AM 23.0 °F 15.8 °F 15.8 °F 74% 29.90 in 10.0 mi NNW 5.8 mph - N/A   Clear
5:34 AM 23.0 °F 14.7 °F 15.8 °F 74% 29.91 in 10.0 mi North 6.9 mph - N/A   Clear
5:54 AM 23.0 °F 13.9 °F 15.8 °F 74% 29.92 in 10.0 mi North 8.1 mph - N/A   Clear
6:14 AM 23.0 °F 13.1 °F 15.8 °F 74% 29.92 in 10.0 mi North 9.2 mph - N/A   Clear
6:34 AM 23.0 °F 13.1 °F 14.0 °F 68% 29.93 in 10.0 mi North 9.2 mph 17.3 mph N/A   Clear
6:54 AM 23.0 °F 13.1 °F 12.2 °F 63% 29.94 in 10.0 mi North 9.2 mph - N/A   Clear
7:14 AM 23.0 °F 12.4 °F 12.2 °F 63% 29.95 in 10.0 mi North 10.4 mph 17.3 mph N/A   Clear
7:34 AM 21.2 °F 10.9 °F 12.2 °F 68% 29.96 in 10.0 mi North 9.2 mph - N/A   Clear
7:54 AM 21.2 °F 10.1 °F 12.2 °F 68% 29.97 in 10.0 mi NNE 10.4 mph - N/A   Clear
8:14 AM 21.2 °F 12.6 °F 12.2 °F 68% 29.98 in 10.0 mi NNE 6.9 mph - N/A   Clear
8:34 AM 21.2 °F 10.9 °F 12.2 °F 68% 29.98 in 10.0 mi NNE 9.2 mph 18.4 mph N/A   Scattered Clouds
8:54 AM 21.2 °F 10.1 °F 10.4 °F 63% 30.00 in 10.0 mi NE 10.4 mph 16.1 mph N/A   Scattered Clouds
9:14 AM 19.4 °F 7.2 °F 10.4 °F 68% 30.01 in 10.0 mi NNE 11.5 mph 16.1 mph N/A   Scattered Clouds
9:34 AM 19.4 °F 8.6 °F 10.4 °F 68% 30.01 in 10.0 mi NNE 9.2 mph - N/A   Scattered Clouds
9:54 AM 19.4 °F 6.6 °F 10.4 °F 68% 30.01 in 10.0 mi NNE 12.7 mph 17.3 mph N/A   Clear
10:14 AM 19.4 °F 7.9 °F 10.4 °F 68% 30.02 in 10.0 mi North 10.4 mph - N/A   Scattered Clouds
10:33 AM 19.4 °F 7.2 °F 10.4 °F 68% 30.02 in 10.0 mi NNE 11.5 mph 18.4 mph N/A   Scattered Clouds
10:54 AM 21.2 °F 9.5 °F 12.2 °F 68% 30.02 in 10.0 mi NNE 11.5 mph 17.3 mph N/A   Clear
11:14 AM 21.2 °F 10.1 °F 10.4 °F 63% 30.00 in 10.0 mi NNE 10.4 mph 21.9 mph N/A   Clear
11:33 AM 21.2 °F 9.5 °F 12.2 °F 68% 30.00 in 10.0 mi NNE 11.5 mph - N/A   Clear
11:54 AM 21.2 °F 9.5 °F 12.2 °F 68% 29.99 in 10.0 mi NNE 11.5 mph 20.7 mph N/A   Clear
12:14 PM 21.2 °F 7.3 °F 10.4 °F 63% 29.97 in 10.0 mi North 16.1 mph 21.9 mph N/A   Clear
12:33 PM 21.2 °F 7.3 °F 10.4 °F 63% 29.97 in 10.0 mi NNE 16.1 mph 21.9 mph N/A   Clear
12:54 PM 21.2 °F 8.3 °F 10.4 °F 63% 29.95 in 10.0 mi NNE 13.8 mph 20.7 mph N/A   Clear
1:14 PM 21.2 °F 8.9 °F 10.4 °F 63% 29.95 in 10.0 mi NNE 12.7 mph 19.6 mph N/A   Clear
1:33 PM 21.2 °F 9.5 °F 10.4 °F 63% 29.94 in 10.0 mi NNE 11.5 mph 16.1 mph N/A   Clear
1:54 PM 21.2 °F 7.8 °F 10.4 °F 63% 29.96 in 10.0 mi North 15.0 mph 20.7 mph N/A   Clear
2:14 PM 21.2 °F 8.3 °F 10.4 °F 63% 29.95 in 10.0 mi North 13.8 mph - N/A   Clear
2:33 PM 21.2 °F 7.3 °F 8.6 °F 58% 29.94 in 10.0 mi NNE 16.1 mph 23.0 mph N/A   Clear
2:54 PM 21.2 °F 7.8 °F 8.6 °F 58% 29.94 in 10.0 mi NNE 15.0 mph 21.9 mph N/A   Clear
3:14 PM 21.2 °F 8.9 °F 10.4 °F 63% 29.95 in 10.0 mi North 12.7 mph 18.4 mph N/A   Clear
3:34 PM 21.2 °F 8.3 °F 10.4 °F 63% 29.95 in 10.0 mi NNE 13.8 mph 20.7 mph N/A   Clear
3:54 PM 21.2 °F 8.9 °F 10.4 °F 63% 29.96 in 10.0 mi NNE 12.7 mph 20.7 mph N/A   Clear
4:14 PM 21.2 °F 8.9 °F 10.4 °F 63% 29.97 in 10.0 mi NNE 12.7 mph 20.7 mph N/A   Clear
4:34 PM 21.2 °F 8.3 °F 10.4 °F 63% 29.96 in 10.0 mi NNE 13.8 mph 19.6 mph N/A   Scattered Clouds
4:54 PM 21.2 °F 9.5 °F 10.4 °F 63% 29.96 in 10.0 mi NNE 11.5 mph 20.7 mph N/A   Scattered Clouds
5:14 PM 21.2 °F 8.9 °F 10.4 °F 63% 29.98 in 10.0 mi NNE 12.7 mph 18.4 mph N/A   Scattered Clouds
5:34 PM 21.2 °F 11.7 °F 10.4 °F 63% 29.97 in 10.0 mi NNE 8.1 mph - N/A   Mostly Cloudy
5:54 PM 21.2 °F 10.1 °F 10.4 °F 63% 29.97 in 10.0 mi NNE 10.4 mph 20.7 mph N/A   Mostly Cloudy
6:14 PM 21.2 °F 9.5 °F 10.4 °F 63% 29.95 in 10.0 mi NNE 11.5 mph 23.0 mph N/A   Clear
6:34 PM 21.2 °F 8.3 °F 10.4 °F 63% 29.95 in 10.0 mi NNE 13.8 mph 19.6 mph N/A   Clear
6:54 PM 21.2 °F 7.3 °F 10.4 °F 63% 29.95 in 10.0 mi NNE 16.1 mph 19.6 mph N/A   Clear
7:14 PM 21.2 °F 8.9 °F 10.4 °F 63% 29.96 in 10.0 mi North 12.7 mph 19.6 mph N/A   Clear
7:34 PM 21.2 °F 8.9 °F 10.4 °F 63% 29.97 in 10.0 mi NNE 12.7 mph 20.7 mph N/A   Mostly Cloudy
7:54 PM 21.2 °F 7.8 °F 10.4 °F 63% 29.96 in 10.0 mi NNE 15.0 mph 19.6 mph N/A   Overcast
8:14 PM 21.2 °F 9.5 °F 10.4 °F 63% 29.97 in 10.0 mi North 11.5 mph - N/A   Overcast
8:34 PM 21.2 °F 8.9 °F 10.4 °F 63% 29.97 in 10.0 mi North 12.7 mph - N/A   Overcast
8:54 PM 21.2 °F 7.8 °F 10.4 °F 63% 29.97 in 10.0 mi North 15.0 mph 20.7 mph N/A   Overcast
9:13 PM 21.2 °F 8.3 °F 10.4 °F 63% 29.98 in 10.0 mi North 13.8 mph 20.7 mph N/A   Overcast
9:34 PM 21.2 °F 7.3 °F 10.4 °F 63% 29.95 in 10.0 mi NNE 16.1 mph 24.2 mph N/A   Overcast
9:54 PM 21.2 °F 10.1 °F 10.4 °F 63% 29.95 in 10.0 mi North 10.4 mph 19.6 mph N/A   Overcast
10:14 PM 21.2 °F 8.3 °F 12.2 °F 68% 29.95 in 10.0 mi NNE 13.8 mph 20.7 mph N/A   Overcast
10:34 PM 21.2 °F 8.3 °F 12.2 °F 68% 29.96 in 10.0 mi North 13.8 mph 18.4 mph N/A   Overcast
10:54 PM 21.2 °F 8.9 °F 12.2 °F 68% 29.95 in 10.0 mi NNE 12.7 mph 18.4 mph N/A   Overcast
11:14 PM 21.2 °F 10.9 °F 12.2 °F 68% 29.97 in 10.0 mi NNE 9.2 mph 18.4 mph N/A   Overcast
11:34 PM 21.2 °F 8.9 °F 12.2 °F 68% 29.96 in 10.0 mi NNE 12.7 mph - N/A   Overcast
11:54 PM 21.2 °F 9.5 °F 12.2 °F 68% 29.97 in 10.0 mi North 11.5 mph - N/A   Overcast